THORAD AGENA D DEB, 4754

Orbit data source: Space-Track

THORAD AGENA D DEB, 4754 is space debris in SSO originally from a launch on Wed, 08 Apr 1970 UTC launched from the Air Force Western Test Range (AFWTR). Debris objects in space refer to the collection of defunct objects orbiting the Earth. Examples of debris include non-operational satellites, rocket bodies, and fragments generated from explosions, collisions, or faulty payload assembly.

Loading next visibility...
Identifier
4754, 1970-025DC
Orbit
SSO
Country
Flag of USUS
Related business
Manufacturer
Unknown
Mission
Spacecraft
Bus & Motor
Unknown
Mass
Unknown
Launch date (UTC)
1970-04-08 (56 years ago)
Launch vehicle
Unknown
Launch site
Air Force Western Test Range (AFWTR)
Object type
Payload
Rocket body
Debris
Shape & HBR
Unknown shape, 0.1 m
Radar Cross Section
Small (<0.1 m²)

Expand to show TLE details & history
Last TLE update: 18 hours ago

TLE from 18 hours ago
0 THORAD AGENA D DEB
1 04754U 70025DC  25301.33081313  .00010433  00000-0  38835-2 0  9997
2 04754  99.5940 234.3605 0010283 237.9793 122.0389 14.32206007800564
Epoch: 2025-10-28T07:56Z
TLE epoch observation values (Epoch: 2025-10-28T07:56:22.254Z)
Latitude
0.00001°
Longitude
78.34793°
Altitude
791.181 km
Speed
7.456 km/s
True Right ascension
15h 37m 26s
True Declination
0° 00' 00"
Sunlit
Object was in daylight at epoch
Visualization orbit readout
Latitude
Unknown
Longitude
Unknown
Altitude
Unknown
Speed
Unknown
Apparent Right ascension
Unknown
Apparent Declination
Unknown
Sunlit
N/A
Visualization observer readout
Local Sidereal Time
21:10:39
Azimuth
Unknown
Elevation
Unknown
Doppler factor
Unknown
Orbital elements
Apogee altitude
788.916 km
Perigee altitude
774.191 km
Semi-major axis
7,159.69 km
Eccentricity
0.00103
Inclination
99.594°
RAAN
234.3605°
Arg. of periapsis
237.9793°
True anomaly
122.13872°
Mean anomaly
122.0389°
Eccentric anomaly
122.08882°
Mean motion
3.58263 °/min
Orbital period
100.48 mins
BSTAR
0.0038835
Loading maneuver chart data...
Computing Atmospheric mass density...

Documentation

Showing up to 5 results
|